Probability
0 0 0 0 0 0 0 0 0 0 0 0 0 0 0 0 0 0 0 0 0 0 0 0 0 0 0 0 0 0 0 0 0 0 0 0 0 0 0 0 0 0 0
0 0 0 0 0 0 0 0 0 0 0 0 0 0 0 0 0 0 0 0 0 0 0 0 0 0 0 0 0 0 0 0 0 0 0 0 0 0 0 0 0 0 0
0 0 0 0 0 0 0 0 0 0 0 0 0 0 0 0 0 0 0 0 0 0 0 0 0 0 0 0 0 0 0 0 0 0 0 0 0 0 0 0 0 0 0
0 0 0 0 0 0 0 0 0 0 0 0 0 0 0 0 0 0 0 0 0 0 0 0 0 0 0 0 0 0 0 0 0 0 0 0 0 0 0 0 0 0 0
0 0 0 0 0 0 0 0 0 0 0 0 0 0 0 0 0 0 0 0 0 0 0 0 0 0 0 0 0 0 0 0 0 0 0 0 0 0 0 0 0 0 0
0 0 0 0 0 0 0 0 0 0 0 0 0 0 0 0 0 0 0 0 0 0 0 0 0 0 0 0 0 0 0 0 0 0 0 0 0 0 0 0 0 0 0
0 0 0 0 0 0 0 0 0 0 0 0 0 0 0 0 0 0 0 0 0 0 0 0 0 0 0 0 0 0 0 0 0 0 0 0 0 0 0 0 0 0 0
0 0 0 0 0 0 0 0 0 0 0 0 0 0 0 0 0 0 0 0 0 0 0 0 0 0 0 0 0 0 0 0 0 0 0 0 0 0 0 0 0 0 0
0 0 0 0 0 0 0 0 0 0 0 0 0 0 0 0 0 0 0 0 0 0 0 0 0 0 0 0 0 0 0 0 0 0 0 0 0 0 0 0 0 0 0
0 0 0 0 0 0 0 0 0 0 0 0 0 0 0 0 0 0 0 0 0 0 0 0 0 0 0 0 0 0 0 0 0 0 0 0 0 0 0 0 0 0 0
0 0 0 0 0 0 0 0 0 0 0 0 0 0 0 0 0 0 0 0 0 0 0 0 0 0 0 0 0 0 0 0 0 0 0 0 0 0 0 0 0 0 0
0 0 0 0 0 0 0 0 0 0 0 0 0 0 0 0 0 0 0 0 0 0 0 0 0 0 0 0 0 0 0 0 0 0 0 0 0 0 0 0 0 0 0
0 0 0 0 0 0 0 0 0 0 0 0 0 0 0 0 0 0 0 0 0 0 0 0 0 0 0 0 0 0 0 0 0 0 0 0 0 0 0 0 0 0 0
0 0 0 0 0 0 0 0 0 0 0 0 0 0 0 0 0 0 0 0 0 0 0 0 0 0 0 0 0 0 0 0 0 0 0 0 0 0 0 0 0 0 0
0 0 0 0 0 0 0 0 0 0 0 0 0 0 0 0 0 0 0 0 0 0 0 0 0 0 0 0 0 0 0 0 0 0 0 0 0 0 0 0 0 0 0
0 0 0 0 0 0 0 0 0 0 0 0 0 0 0 0 0 0 0 0 0 0 0 0 0 0 0 0 0 0 0 0 0 0 0 0 0 0 0 0 0 0 0
0 0 0 0 0 0 0 0 0 0 0 0 0 0 0 0 0 0 0 0 0 0 0 0 0 0 0 0 0 0 0 0 0 0 0 0 0 0 0 0 0 0 0
0 0 0 0 0 0 0 0 0 0 0 0 0 0 0 0 0 0 0 0 0 0 0 0 0 0 0 0 0 0 0 0 0 0 0 0 0 0 0 0 0 0 0
0 0 0 0 0 0 0 0 0 0 0 0 0 0 0 0 0 0 0 0 0 0 0 0 0 0 0 0 0 0 0 0 0 0 0 0 0 0 0 0 0 0 0
0 0 0 0 0 0 0 0 0 0 0 0 0 0 0 0 0 0 0 0 0 0 0 0 0 0 0 0 0 0 0 0 0 0 0 0 0 0 0 0 0 0 0
0 0 0 0 0 0 0 0 0 0 0 0 0 0 0 0 0 0 0 0 0 0 0 0 0 0 0 0 0 0 0 0 0 0 0 0 0 0 0 0 0 0 0
0 0 0 0 0 0 0 0 0 0 0 0 0 0 0 0 0 0 0 0 0 0 0 0 0 0 0 0 0 0 0 0 0 0 0 0 0 0 0 0 0 0 0
0 0 0 0 0 0 0 0 0 0 0 0 0 0 0 0 0 0 0 0 0 0 0 0 0 0 0 0 0 0 0 0 0 0 0 0 0 0 0 0 0 0 0
0 0 0 0 0 0 0 0 0 0 0 0 0 0 0 0 0 0 0 0 0 0 0 0 0 0 0 0 0 0 0 0 0 0 0 0 0 0 0 0 0 0 0
0 0 0 0 0 0 0 0 0 0 0 0 0 0 0 0 0 0 0 0 0 0 0 0 0 0 0 0 0 0 0 0 0 0 0 0 0 0 0 0 0 0 0
0 0 0 0 0 0 0 0 0 0 0 0 0 0 0 0 0 0 0 0 0 0 0 0 0 0 0 0 0 0 0 0 0 0 0 0 0 0 0 0 0 0 0
Wind_Speed
11 10 10 9 9 9 8 8 8 7 7 7 6 6 6 5 5 6 6 7 8 8 8 9 10 10 8 8 8 9 9 10 14 14 12 12 15 15 13 14 14 15 14
11 10 10 10 9 9 9 8 8 8 7 6 6 6 6 6 6 7 7 8 9 10 10 10 11 9 11 10 9 11 10 11 13 17 14 13 15 15 15 15 13 13 14
11 11 11 11 10 10 9 9 8 7 7 6 6 6 6 6 7 7 8 9 9 10 10 11 12 12 13 11 12 11 10 11 12 13 15 13 12 12 14 14 15 13 14
11 11 12 11 11 10 9 8 8 7 7 7 6 6 6 6 6 7 8 9 10 11 11 12 12 12 13 13 12 13 12 12 12 12 13 13 12 13 13 12 12 11 12
12 12 11 10 9 9 8 8 7 7 7 6 6 6 7 6 6 7 7 9 10 12 12 12 13 14 17 15 12 12 12 11 11 11 12 12 12 12 11 11 12 12 13
12 11 10 9 9 9 8 8 7 7 6 6 7 7 7 6 8 12 11 11 11 12 13 13 13 14 16 19 21 21 19 15 13 12 12 13 15 14 12 11 12 13 13
10 10 10 10 9 9 8 7 7 7 7 7 7 8 9 9 10 13 14 12 13 13 13 13 11 11 15 13 16 19 19 22 22 17 16 16 16 15 15 15 13 14 14
9 9 9 9 9 8 8 7 7 6 6 7 7 8 9 9 11 13 14 13 13 13 13 14 14 14 12 13 13 14 15 16 17 14 13 15 16 15 14 14 14 13 13
8 9 9 9 8 8 7 7 6 6 6 7 7 8 9 10 11 13 14 11 11 13 13 13 14 14 17 19 16 16 16 15 16 20 21 21 23 23 18 11 10 11 12
7 7 7 7 7 7 7 6 5 5 6 6 7 8 10 11 11 13 14 9 11 11 11 12 15 16 18 20 16 15 15 14 14 14 15 15 15 15 17 12 9 10 11
6 6 6 6 6 5 5 4 4 5 6 7 8 9 10 11 12 14 15 10 10 11 10 10 10 16 19 21 20 15 17 17 14 12 10 10 10 8 8 8 6 8 10
6 6 5 5 4 3 4 4 5 5 7 8 9 9 8 9 10 12 15 15 15 13 12 11 11 18 21 22 18 18 22 19 10 9 9 9 9 8 7 8 7 7 9
6 5 4 3 3 3 4 5 5 5 6 7 7 8 9 8 9 14 16 17 18 14 12 17 21 23 22 17 17 20 16 10 8 9 9 9 8 8 8 7 8 7 9
5 4 3 2 3 3 3 4 5 6 6 7 8 9 9 9 8 7 8 10 13 13 12 15 20 20 16 16 15 11 8 8 8 8 9 8 8 8 7 7 7 7 7
3 2 2 2 3 4 5 5 7 7 7 8 9 9 10 10 11 15 14 11 10 11 13 10 10 9 8 8 8 8 7 7 8 7 8 8 8 8 7 6 6 6 7
2 2 2 2 3 4 5 6 9 11 14 16 17 16 13 17 20 21 22 22 22 22 16 10 10 9 9 9 9 8 8 7 7 7 8 8 8 8 7 7 6 6 7
2 2 2 3 4 5 5 7 8 8 12 15 17 18 19 20 22 22 22 22 21 20 12 10 9 9 9 9 8 8 8 8 7 8 8 8 8 8 7 7 6 6 6
2 3 4 4 5 6 6 7 8 9 10 9 11 15 18 19 20 20 21 19 13 11 9 9 9 9 9 8 8 8 8 8 7 8 8 8 7 8 7 7 6 7 6
3 3 4 5 6 6 7 8 8 10 10 10 10 11 14 16 18 18 18 11 10 10 9 9 9 9 9 8 8 8 9 8 8 8 8 8 8 7 7 7 7 9 8
4 6 7 6 7 7 7 8 8 9 10 10 10 10 10 11 10 10 10 9 9 10 9 9 9 9 8 8 8 8 8 8 9 8 8 8 7 7 7 8 7 7 6
4 5 8 7 7 7 8 8 9 9 10 10 10 12 16 11 11 11 10 9 9 9 9 9 9 9 8 7 7 9 10 9 8 8 8 7 7 7 7 7 7 7 6
5 6 6 7 7 8 8 9 9 10 11 12 11 11 17 12 10 10 10 10 9 9 9 9 9 8 8 8 8 8 9 9 8 8 8 8 7 7 7 7 7 6 6
6 7 7 8 8 11 11 9 10 10 11 11 11 11 10 10 10 10 10 10 9 9 9 8 9 9 8 8 8 8 9 9 8 8 8 8 8 8 7 8 8 8 7
7 8 9 9 9 9 10 10 10 11 11 11 11 11 11 10 10 11 11 10 10 10 9 9 9 11 13 11 9 9 9 9 9 9 11 11 10 9 8 8 9 9 8
7 8 9 9 9 10 10 10 11 11 11 11 11 11 11 11 11 11 10 10 11 11 11 11 9 10 13 14 13 11 14 18 17 13 11 10 12 11 11 11 9 9 9
8 9 9 9 9 9 10 10 11 11 11 11 10 10 11 11 11 11 10 10 10 10 11 10 11 13 14 13 15 17 19 20 20 20 13 10 11 11 11 10 11 10 10
Wind_Direction
179 175 173 170 168 169 171 171 171 171 177 186 193 203 213 223 233 242 251 258 263 268 266 267 270 273 273 271 268 267 266 269 277 286 289 294 295 293 292 289 290 291 291
181 178 176 170 170 174 174 173 174 179 184 192 199 210 220 231 241 251 258 260 265 269 272 272 273 274 272 272 271 270 271 273 278 288 292 294 294 294 290 289 288 287 287
181 180 177 176 178 180 177 175 178 183 188 195 206 218 226 234 244 254 261 266 268 271 273 273 274 275 275 275 275 275 276 277 277 282 288 291 291 290 290 286 286 285 286
183 185 185 184 184 182 177 178 182 187 194 203 214 224 231 235 245 255 262 266 269 270 270 270 271 271 273 277 279 279 279 279 278 278 282 286 287 288 287 288 289 288 288
186 189 189 185 180 177 178 181 183 191 202 209 220 230 237 235 235 241 251 256 263 269 270 268 268 268 271 273 274 276 277 276 278 278 281 285 286 289 289 291 290 291 288
189 190 183 178 176 178 181 181 186 197 205 215 226 237 245 247 249 257 267 271 270 270 273 273 273 270 270 272 274 277 279 280 281 280 282 283 286 288 290 290 290 290 290
189 185 179 178 177 179 179 185 194 204 213 224 235 244 254 258 258 267 271 278 278 277 277 278 277 275 277 277 280 282 280 278 276 277 279 281 286 289 291 290 286 285 286
183 181 178 177 178 177 183 194 204 213 223 235 244 252 261 265 266 272 279 278 277 276 277 278 280 281 281 282 281 279 277 276 274 274 273 277 280 284 283 284 286 285 283
179 179 177 176 175 179 191 203 210 222 234 243 252 258 264 270 268 275 282 283 278 279 279 278 278 280 283 286 285 283 283 281 279 277 278 281 284 288 289 290 290 289 290
174 174 171 174 177 187 199 209 217 230 245 252 256 262 267 273 277 278 281 280 281 282 281 278 276 277 283 288 287 287 286 287 289 289 286 285 285 286 287 283 284 285 288
157 158 162 171 182 192 202 213 226 238 250 258 266 268 269 272 277 275 278 278 280 284 284 283 281 284 287 290 290 287 286 291 292 291 289 286 285 280 276 274 266 271 280
148 153 159 168 169 192 211 228 239 248 260 267 272 276 274 272 269 274 278 279 283 284 284 285 285 289 291 293 293 290 293 296 292 289 287 287 287 287 287 285 273 267 267
150 153 156 167 184 210 231 243 252 255 261 271 275 278 281 280 277 276 281 284 285 283 282 285 289 291 294 293 290 292 295 291 287 283 282 284 288 289 288 283 276 263 262
153 154 163 192 220 234 241 248 253 258 264 270 275 279 283 282 281 282 281 284 284 283 284 286 288 288 287 286 289 290 284 280 280 280 282 287 289 286 281 281 283 286 284
152 162 195 231 248 257 254 253 258 260 262 269 277 279 284 284 284 288 291 291 291 289 294 288 283 283 282 283 285 286 284 282 281 279 281 285 286 285 284 283 281 284 283
173 208 238 254 261 266 273 273 250 253 267 266 269 274 278 279 288 292 293 294 297 296 295 287 287 287 288 291 292 291 288 284 283 282 282 283 284 286 287 284 279 277 281
217 243 258 263 269 273 277 281 287 275 263 268 272 276 279 286 291 294 295 296 296 297 289 284 286 288 289 288 287 287 286 285 286 283 280 280 281 281 281 281 279 278 278
248 257 264 268 273 276 277 279 283 289 292 287 281 281 284 287 290 292 295 298 291 286 280 281 283 285 285 283 284 285 285 285 282 280 279 278 278 278 278 278 278 279 281
261 267 272 276 275 276 277 278 280 283 284 289 291 288 287 290 291 290 293 285 283 283 282 281 283 283 280 279 281 283 283 283 283 282 280 278 276 275 274 275 278 279 276
267 270 278 280 278 278 279 280 282 283 285 286 288 291 296 294 289 289 286 281 280 281 282 283 282 279 279 278 279 281 281 279 280 276 276 276 275 272 272 273 274 275 272
277 276 277 278 276 279 280 280 281 282 284 285 286 290 294 294 291 291 289 285 283 283 283 283 281 280 277 276 277 279 278 276 275 275 276 275 274 274 273 271 271 268 268
276 277 278 279 280 280 281 282 282 282 285 287 290 293 295 291 288 288 287 286 286 284 283 281 279 277 276 275 276 277 276 275 274 273 273 273 272 272 270 267 267 266 262
277 279 280 281 282 284 285 283 284 285 286 289 291 292 291 287 286 286 286 286 286 284 282 280 278 277 274 272 271 270 271 272 272 275 276 276 273 270 267 265 263 261 259
278 280 283 286 286 285 285 286 286 286 287 288 288 288 288 287 286 285 285 286 286 284 282 279 277 277 276 276 273 269 267 268 270 268 267 266 267 266 264 263 261 257 254
284 286 288 288 288 288 288 288 287 287 287 287 287 287 288 288 287 287 286 286 286 283 281 280 277 276 276 276 274 272 272 273 273 272 265 261 259 257 257 258 256 254 249
290 290 290 289 288 287 287 287 287 288 288 287 287 287 287 287 287 286 286 285 284 284 283 280 277 278 279 278 276 274 275 275 275 275 270 263 259 255 252 250 249 247 247